N139FJ KMKE-KMTW

Flight info

Callsign N139FJ
Flight time 0h 30m
Altitude 7000
Route CYNDI
Aircraft DA62/L-SDFGRY/C

Departure

Time 2026-04-26 20:05
Airport General Mitchell International Airport (KMKE)

Arrival

Time 2026-04-26 20:36
Airport Manitowoc County Airport (KMTW)
Time Latitude Longitude Altitude Speed Heading
2026-04-26 19:49 42.93375 -87.90257 683 ft 0 kts 181°
2026-04-26 19:56 42.93374 -87.90257 683 ft 1 kts 181°
2026-04-26 19:57 42.93332 -87.90253 683 ft 10 kts 164°
2026-04-26 19:57 42.93321 -87.90184 683 ft 7 kts 85°
2026-04-26 19:57 42.93324 -87.90149 683 ft 0 kts 84°
2026-04-26 19:59 42.93325 -87.90130 683 ft 7 kts 86°
2026-04-26 19:59 42.93327 -87.90033 683 ft 10 kts 91°
2026-04-26 19:59 42.93339 -87.89920 683 ft 12 kts 48°
2026-04-26 20:00 42.93418 -87.89902 683 ft 15 kts
2026-04-26 20:00 42.93558 -87.89893 683 ft 25 kts
2026-04-26 20:00 42.93756 -87.89889 683 ft 30 kts
2026-04-26 20:00 42.93954 -87.89887 683 ft 27 kts
2026-04-26 20:01 42.94137 -87.89886 683 ft 27 kts 352°
2026-04-26 20:01 42.94255 -87.89915 683 ft 0 kts 349°
2026-04-26 20:01 42.94274 -87.89918 683 ft 12 kts 351°
2026-04-26 20:02 42.94436 -87.89967 683 ft 24 kts 315°
2026-04-26 20:02 42.94419 -87.90152 683 ft 27 kts 252°
2026-04-26 20:02 42.94340 -87.90477 683 ft 42 kts 251°
2026-04-26 20:02 42.94279 -87.90728 683 ft 29 kts 256°
2026-04-26 20:03 42.94195 -87.91077 683 ft 29 kts 251°
2026-04-26 20:03 42.94117 -87.91390 683 ft 43 kts 251°
2026-04-26 20:03 42.94031 -87.91739 683 ft 23 kts 244°
2026-04-26 20:03 42.93955 -87.91778 683 ft 10 kts 152°
2026-04-26 20:04 42.93925 -87.91709 683 ft 5 kts 72°
2026-04-26 20:04 42.93925 -87.91708 683 ft 0 kts 72°
2026-04-26 20:04 42.93926 -87.91704 683 ft 6 kts 73°
2026-04-26 20:04 42.94006 -87.91370 683 ft 65 kts 71°
2026-04-26 20:05 42.94202 -87.90668 811 ft 87 kts 76°
2026-04-26 20:05 42.94431 -87.89859 1041 ft 99 kts 73°
2026-04-26 20:05 42.94652 -87.89015 1480 ft 93 kts 72°
2026-04-26 20:05 42.94902 -87.88189 1872 ft 90 kts 72°
2026-04-26 20:06 42.95153 -87.87413 2234 ft 93 kts 73°
2026-04-26 20:06 42.95418 -87.86584 2555 ft 96 kts 74°
2026-04-26 20:06 42.95874 -87.85848 2848 ft 111 kts 43°
2026-04-26 20:06 42.96540 -87.85335 3234 ft 111 kts 24°
2026-04-26 20:07 42.97321 -87.85533 3555 ft 121 kts 338°
2026-04-26 20:07 42.98123 -87.85585 3862 ft 116 kts 12°
2026-04-26 20:07 42.98947 -87.85556 4163 ft 119 kts
2026-04-26 20:07 42.99779 -87.85514 4475 ft 120 kts
2026-04-26 20:08 43.00620 -87.85468 4784 ft 122 kts
2026-04-26 20:08 43.01472 -87.85420 5087 ft 123 kts
2026-04-26 20:08 43.02330 -87.85372 5399 ft 124 kts
2026-04-26 20:08 43.03190 -87.85323 5711 ft 124 kts
2026-04-26 20:09 43.04053 -87.85274 6024 ft 125 kts
2026-04-26 20:09 43.04919 -87.85224 6350 ft 124 kts
2026-04-26 20:09 43.05785 -87.85175 6664 ft 125 kts
2026-04-26 20:09 43.06656 -87.85125 6956 ft 127 kts
2026-04-26 20:10 43.07623 -87.85067 7003 ft 152 kts
2026-04-26 20:10 43.08748 -87.85003 7009 ft 171 kts
2026-04-26 20:10 43.09985 -87.84936 7008 ft 184 kts
2026-04-26 20:10 43.11298 -87.84863 7007 ft 193 kts
2026-04-26 20:11 43.12657 -87.84787 7009 ft 198 kts
2026-04-26 20:11 43.14048 -87.84708 7009 ft 201 kts
2026-04-26 20:11 43.15456 -87.84627 7009 ft 203 kts
2026-04-26 20:12 43.18300 -87.84465 7009 ft 205 kts
2026-04-26 20:12 43.19711 -87.84384 7010 ft 206 kts
2026-04-26 20:12 43.21166 -87.84300 7008 ft 207 kts
2026-04-26 20:12 43.22604 -87.84218 7019 ft 207 kts
2026-04-26 20:13 43.24040 -87.84135 7012 ft 207 kts
2026-04-26 20:13 43.25478 -87.84053 7006 ft 207 kts
2026-04-26 20:13 43.26912 -87.83970 7006 ft 206 kts
2026-04-26 20:13 43.28346 -87.83888 7006 ft 206 kts
2026-04-26 20:14 43.29761 -87.83806 7007 ft 206 kts
2026-04-26 20:14 43.31193 -87.83724 7008 ft 206 kts
2026-04-26 20:14 43.32162 -87.83668 7008 ft 206 kts
2026-04-26 20:14 43.34058 -87.83559 7009 ft 206 kts
2026-04-26 20:15 43.35489 -87.83477 7012 ft 206 kts
2026-04-26 20:15 43.36920 -87.83394 7012 ft 206 kts
2026-04-26 20:15 43.38352 -87.83311 7013 ft 206 kts
2026-04-26 20:15 43.39783 -87.83229 7025 ft 206 kts
2026-04-26 20:16 43.41214 -87.83146 7012 ft 206 kts
2026-04-26 20:16 43.42649 -87.83063 7013 ft 207 kts
2026-04-26 20:16 43.44091 -87.82980 7014 ft 208 kts
2026-04-26 20:16 43.45533 -87.82896 7013 ft 207 kts
2026-04-26 20:17 43.46974 -87.82813 7012 ft 207 kts
2026-04-26 20:17 43.48414 -87.82729 7012 ft 207 kts
2026-04-26 20:17 43.49852 -87.82646 7014 ft 207 kts
2026-04-26 20:17 43.50803 -87.82591 7014 ft 207 kts
2026-04-26 20:18 43.52725 -87.82480 7015 ft 207 kts
2026-04-26 20:18 43.54163 -87.82396 7015 ft 207 kts
2026-04-26 20:18 43.55109 -87.82341 7015 ft 207 kts
2026-04-26 20:18 43.56554 -87.82258 7014 ft 207 kts
2026-04-26 20:19 43.57990 -87.82173 7016 ft 207 kts
2026-04-26 20:19 43.59428 -87.82090 7002 ft 207 kts
2026-04-26 20:19 43.60866 -87.82007 7003 ft 207 kts
2026-04-26 20:19 43.62306 -87.81923 7000 ft 207 kts
2026-04-26 20:20 43.63746 -87.81823 6994 ft 207 kts
2026-04-26 20:20 43.65154 -87.81447 6996 ft 206 kts 14°
2026-04-26 20:20 43.66557 -87.81038 6999 ft 206 kts 14°
2026-04-26 20:20 43.67966 -87.80639 6993 ft 206 kts 14°
2026-04-26 20:21 43.69372 -87.80243 6992 ft 206 kts 14°
2026-04-26 20:21 43.70777 -87.79845 6992 ft 206 kts 14°
2026-04-26 20:21 43.72122 -87.79225 6988 ft 203 kts 31°
2026-04-26 20:21 43.73303 -87.78266 6561 ft 198 kts 35°
2026-04-26 20:22 43.74499 -87.77293 6045 ft 199 kts 32°
2026-04-26 20:22 43.75725 -87.76397 5672 ft 198 kts 31°
2026-04-26 20:22 43.76944 -87.75533 5324 ft 196 kts 31°
2026-04-26 20:22 43.78153 -87.74667 5014 ft 192 kts 31°
2026-04-26 20:23 43.79343 -87.73810 5007 ft 194 kts 31°
2026-04-26 20:23 43.80541 -87.72943 5008 ft 195 kts 31°
2026-04-26 20:23 43.81747 -87.72073 5008 ft 196 kts 31°
2026-04-26 20:23 43.82954 -87.71204 5009 ft 196 kts 31°
2026-04-26 20:24 43.84165 -87.70334 5011 ft 196 kts 31°
2026-04-26 20:24 43.85367 -87.69465 5008 ft 195 kts 31°
2026-04-26 20:24 43.86567 -87.68598 5014 ft 194 kts 31°
2026-04-26 20:24 43.87763 -87.67733 5012 ft 194 kts 31°
2026-04-26 20:25 43.88959 -87.66869 5008 ft 194 kts 31°
2026-04-26 20:25 43.89749 -87.66297 5009 ft 193 kts 31°
2026-04-26 20:25 43.91344 -87.65144 5013 ft 193 kts 31°
2026-04-26 20:25 43.92538 -87.64280 5024 ft 193 kts 31°
2026-04-26 20:26 43.93725 -87.63408 5020 ft 193 kts 34°
2026-04-26 20:26 43.94611 -87.62108 4935 ft 179 kts 65°
2026-04-26 20:26 43.94889 -87.60456 4332 ft 176 kts 95°
2026-04-26 20:26 43.94570 -87.58876 3880 ft 168 kts 120°
2026-04-26 20:27 43.93789 -87.57721 3409 ft 164 kts 145°
2026-04-26 20:27 43.92711 -87.57170 3137 ft 168 kts 164°
2026-04-26 20:27 43.91601 -87.56852 3025 ft 162 kts 164°
2026-04-26 20:27 43.90493 -87.56518 3026 ft 164 kts 163°
2026-04-26 20:28 43.89376 -87.56181 3018 ft 165 kts 164°
2026-04-26 20:28 43.88254 -87.55840 3018 ft 165 kts 164°
2026-04-26 20:28 43.87102 -87.55730 3004 ft 172 kts 186°
2026-04-26 20:28 43.86025 -87.56516 2997 ft 183 kts 217°
2026-04-26 20:29 43.85410 -87.58091 2998 ft 195 kts 253°
2026-04-26 20:29 43.85588 -87.59968 2997 ft 204 kts 292°
2026-04-26 20:29 43.86561 -87.61374 2996 ft 205 kts 333°
2026-04-26 20:29 43.87891 -87.61923 2998 ft 202 kts 353°
2026-04-26 20:30 43.89290 -87.62252 2999 ft 201 kts 353°
2026-04-26 20:30 43.90666 -87.62633 3000 ft 202 kts 351°
2026-04-26 20:30 43.92040 -87.63057 3010 ft 202 kts 350°
2026-04-26 20:30 43.93410 -87.63481 3010 ft 202 kts 351°
2026-04-26 20:31 43.94774 -87.63806 3009 ft 202 kts 353°
2026-04-26 20:31 43.96159 -87.64151 3009 ft 202 kts 353°
2026-04-26 20:31 43.97539 -87.64498 3011 ft 202 kts 353°
2026-04-26 20:31 43.98842 -87.64820 3008 ft 179 kts 354°
2026-04-26 20:32 44.00016 -87.65100 3008 ft 164 kts 355°
2026-04-26 20:32 44.01101 -87.65351 2987 ft 154 kts 356°
2026-04-26 20:32 44.02151 -87.65582 2851 ft 153 kts 357°
2026-04-26 20:32 44.03165 -87.65800 2657 ft 143 kts 355°
2026-04-26 20:33 44.04122 -87.66036 2346 ft 137 kts 353°
2026-04-26 20:33 44.05037 -87.66288 2098 ft 129 kts 353°
2026-04-26 20:33 44.05852 -87.66501 1900 ft 113 kts 353°
2026-04-26 20:33 44.06607 -87.66690 1725 ft 112 kts 353°
2026-04-26 20:34 44.07374 -87.66872 1570 ft 112 kts 353°
2026-04-26 20:34 44.08138 -87.67060 1421 ft 110 kts 353°
2026-04-26 20:34 44.08886 -87.67245 1274 ft 108 kts 351°
2026-04-26 20:34 44.09619 -87.67435 1133 ft 106 kts 352°
2026-04-26 20:35 44.10344 -87.67615 1008 ft 105 kts 352°
2026-04-26 20:35 44.11054 -87.67794 886 ft 103 kts 352°
2026-04-26 20:35 44.11754 -87.67968 750 ft 102 kts 353°
2026-04-26 20:35 44.12338 -87.68115 656 ft 59 kts 353°
2026-04-26 20:36 44.12623 -87.68179 655 ft 35 kts 350°
2026-04-26 20:36 44.12844 -87.68243 651 ft 25 kts 334°
2026-04-26 20:36 44.12854 -87.68347 652 ft 10 kts 248°
2026-04-26 20:36 44.12851 -87.68359 652 ft 0 kts 248°
2026-04-26 20:37 44.12829 -87.68414 652 ft 13 kts 231°
2026-04-26 20:37 44.12763 -87.68481 652 ft 9 kts 182°
2026-04-26 20:37 44.12663 -87.68458 652 ft 18 kts 171°
2026-04-26 20:37 44.12542 -87.68430 653 ft 19 kts 170°
2026-04-26 20:38 44.12422 -87.68403 654 ft 16 kts 172°
2026-04-26 20:38 44.12321 -87.68376 654 ft 13 kts 162°
2026-04-26 20:38 44.12298 -87.68366 654 ft 2 kts 166°
2026-04-26 20:38 44.12293 -87.68365 654 ft 0 kts 169°